Probability
0 0 0 0 0 0 0 0 0 0 0 0 0 0 0 0 0 0 0 1 2 4 6 5 2 1 1 2 1 0 0 1 2 3 3 3 4 3 1 0 0 0 0 0
0 0 0 0 0 0 0 0 0 0 0 0 0 0 0 0 0 0 0 0 1 3 5 5 4 3 3 4 2 0 0 0 1 2 3 4 5 4 2 1 0 0 0 0
0 0 0 0 0 0 0 0 0 0 0 0 0 0 0 0 0 0 0 0 1 2 4 5 5 5 5 4 2 0 0 0 0 2 4 5 5 4 3 1 0 0 0 0
0 0 0 0 0 0 0 0 0 0 0 0 0 0 0 0 0 0 1 1 1 2 4 5 6 5 4 3 1 0 1 1 0 1 3 4 4 3 2 1 0 0 0 0
0 0 0 0 0 0 0 0 0 0 0 0 0 0 0 0 1 1 1 1 2 4 6 4 4 5 4 3 1 1 1 2 1 1 3 3 3 3 1 0 0 0 0 0
0 0 0 0 0 0 0 0 0 0 0 0 0 0 0 1 2 2 1 1 3 6 7 4 2 3 3 3 2 1 1 2 2 2 3 3 3 2 1 0 0 0 0 0
0 0 0 0 0 0 0 0 0 0 0 0 0 0 1 2 2 1 0 1 3 5 5 3 1 2 2 2 2 1 0 1 1 1 3 3 3 2 1 0 0 0 0 0
0 0 0 0 0 0 0 0 0 0 0 0 0 0 1 2 1 0 0 1 2 2 2 1 0 1 1 1 1 0 0 0 1 1 2 4 3 2 1 2 1 0 0 0
0 0 0 0 0 0 0 0 0 0 0 0 0 0 1 1 1 1 1 1 1 1 0 0 0 0 0 0 0 1 2 3 3 4 4 4 4 3 3 3 2 1 0 0
0 0 0 0 0 0 0 0 0 0 0 0 0 0 1 2 3 3 2 2 2 1 1 2 1 0 1 1 1 2 5 6 6 6 5 5 4 3 3 3 2 1 0 0
0 0 0 0 0 0 0 0 0 0 0 0 0 0 1 2 4 5 4 4 4 3 4 4 2 1 1 1 2 4 6 8 7 6 5 5 4 4 3 3 2 1 0 1
0 0 0 0 0 0 0 0 0 0 0 0 0 1 2 4 6 7 6 6 6 6 6 6 4 3 2 3 4 5 7 9 8 6 4 5 6 5 3 3 2 1 1 2
0 0 0 0 0 1 2 1 0 0 0 0 0 2 5 8 8 8 7 6 7 8 8 9 8 6 6 6 6 6 8 9 8 6 5 5 6 5 4 3 2 1 2 3
0 0 0 1 1 3 3 2 1 1 0 0 0 2 6 9 10 9 8 8 9 9 10 10 10 9 9 8 7 7 8 8 8 8 8 7 6 6 4 3 3 3 4 5
1 1 1 2 3 4 5 4 3 2 1 1 2 3 6 8 8 8 10 11 12 12 12 13 13 12 11 9 8 8 8 7 10 12 12 10 8 6 5 4 4 6 6 6
1 3 3 3 3 4 5 5 4 4 3 3 3 4 4 6 6 7 9 12 13 14 16 18 18 17 16 13 11 10 9 8 11 13 14 13 11 11 9 8 8 9 8 6
1 3 4 3 3 3 3 4 5 6 6 5 5 5 4 5 5 6 8 11 14 17 19 19 20 21 20 16 12 10 9 9 10 11 12 14 15 16 15 14 13 12 10 8
0 1 3 3 2 1 1 1 3 5 7 7 5 6 7 8 7 7 9 13 17 19 18 18 19 19 18 14 10 10 10 9 9 9 9 12 15 17 17 16 14 13 12 12
0 0 1 2 1 0 0 1 1 3 5 6 6 8 11 12 12 11 12 16 19 18 17 17 16 15 12 8 8 10 12 11 9 7 7 9 13 14 14 13 13 13 13 13
0 0 0 1 1 0 1 2 2 2 3 4 6 9 11 12 13 14 16 18 18 17 16 16 14 10 6 5 6 10 13 13 9 7 6 8 10 11 11 11 11 11 12 12
0 0 0 0 0 0 1 3 4 3 4 4 6 9 9 8 10 13 17 19 19 18 16 14 11 8 4 4 5 9 12 11 8 6 7 7 7 7 7 8 8 9 11 12
0 0 0 0 0 0 2 3 4 5 5 5 6 7 8 8 11 14 18 20 20 18 14 10 8 7 5 4 7 8 8 7 6 6 6 5 5 5 5 5 6 7 9 11
1 0 0 0 0 0 1 3 4 5 5 6 7 7 9 12 14 16 18 18 16 13 9 6 5 5 5 6 7 6 4 4 5 5 4 4 4 4 5 5 6 7 9 9
2 1 0 0 0 0 2 4 5 4 5 6 7 8 10 12 14 15 16 14 10 7 5 4 4 4 6 6 6 4 2 3 4 4 3 3 4 5 5 6 7 9 9 10
3 2 1 1 1 1 3 6 6 4 5 7 8 9 9 9 10 11 11 9 6 5 4 4 5 5 7 6 4 3 2 2 3 3 3 4 5 6 6 5 7 8 8 9
5 3 2 2 2 3 5 6 6 4 5 7 9 9 8 6 6 7 7 6 6 5 5 5 5 6 7 6 4 2 2 2 3 3 3 4 5 6 6 5 5 6 6 6
Wind_Speed
3 4 4 8 7 5 5 4 3 4 3 4 5 4 7 10 9 9 9 8 8 8 6 5 5 5 5 4 4 4 3 2 2 1 1 1 1 0 0 0 1 1 2 2
4 3 7 5 5 4 4 3 3 2 1 3 2 3 5 9 12 11 11 10 10 7 5 6 6 5 5 5 4 4 3 3 3 2 2 1 1 1 1 0 0 1 2 2
7 6 4 5 4 4 3 5 5 3 2 3 3 3 3 5 6 7 8 8 8 11 10 8 7 7 6 6 6 6 5 4 4 3 2 2 2 2 1 1 0 0 1 2
5 4 4 4 4 5 4 6 6 5 4 1 2 3 6 5 5 8 9 9 9 9 9 9 9 8 8 8 6 6 5 4 3 4 3 3 2 1 1 1 0 0 1 1
6 4 5 5 6 7 5 1 4 4 5 2 1 1 7 1 6 10 11 12 11 10 10 10 10 10 9 7 7 6 5 4 4 4 4 3 2 2 1 1 1 1 1 0
5 3 5 6 3 5 5 7 7 6 5 0 3 3 7 5 8 8 10 12 12 11 11 10 9 8 7 6 6 5 5 4 4 4 4 4 4 3 2 1 1 0 0 1
2 2 2 3 3 2 5 7 4 4 3 5 2 3 10 7 7 8 9 10 11 11 11 10 10 9 8 8 7 6 6 5 4 4 4 4 4 4 4 3 2 1 0 0
3 5 4 4 7 7 5 9 9 6 5 4 1 5 9 5 3 4 5 6 8 10 10 10 10 10 9 9 8 7 7 6 5 5 4 3 4 3 2 3 2 2 1 1
7 6 4 2 3 9 6 4 6 8 3 0 4 6 9 3 2 0 3 6 8 9 10 10 10 10 9 9 9 8 8 6 6 5 4 4 4 3 3 3 3 2 2 1
8 4 4 2 4 3 6 9 6 7 6 3 4 4 6 5 4 3 3 5 6 6 8 8 8 8 8 8 7 7 7 7 5 5 5 4 4 3 3 3 3 2 2 1
4 4 2 2 3 5 4 5 6 5 6 7 4 8 7 7 6 5 4 4 6 7 7 7 6 7 6 6 6 6 6 5 5 5 5 4 4 3 3 3 3 2 2 2
3 6 1 4 3 2 4 7 8 7 4 4 5 8 4 4 4 4 4 4 4 5 5 5 6 6 6 6 5 6 6 5 5 5 5 4 4 3 3 3 2 2 2 2
5 6 3 4 5 3 3 3 4 7 6 5 5 7 3 1 1 2 3 4 4 5 5 5 5 5 6 6 6 6 5 5 4 4 4 4 4 4 3 3 2 2 2 2
6 5 7 9 8 4 2 2 4 6 5 5 7 6 5 3 2 2 2 3 4 5 6 5 5 5 5 5 5 5 5 4 5 5 5 5 4 4 3 3 2 2 2 2
5 3 2 3 3 3 3 4 5 4 7 8 7 7 8 6 5 4 4 4 5 5 5 5 5 4 4 4 5 5 5 5 5 5 5 5 4 4 3 3 3 2 2 2
4 4 2 1 1 2 1 2 4 3 3 4 3 5 6 3 2 3 4 6 6 5 5 5 5 5 5 5 5 4 5 5 5 5 5 4 4 4 4 3 3 3 2 2
2 5 3 2 2 2 2 4 5 3 3 6 7 7 3 2 5 6 7 7 7 7 6 6 5 5 5 5 5 5 4 4 4 4 3 3 4 4 3 3 3 3 3 2
6 5 4 2 2 4 7 3 4 4 2 3 4 4 5 5 3 2 3 6 7 6 6 5 5 4 4 4 5 4 4 4 4 4 3 3 4 4 3 3 3 3 2 2
4 7 5 4 3 3 4 1 2 3 3 3 4 3 3 3 3 1 1 4 5 5 5 4 5 5 5 5 5 5 4 4 4 4 4 4 4 4 4 4 3 2 2 2
4 4 6 4 4 6 6 4 2 3 3 2 3 5 5 5 3 4 2 3 3 3 3 3 4 4 5 4 5 6 4 4 3 4 4 4 4 4 4 3 3 2 2 3
3 4 4 4 3 5 4 5 1 4 6 2 3 5 7 5 5 3 4 4 4 4 4 5 5 4 4 4 6 5 4 4 4 3 3 3 3 4 3 3 3 2 2 2
3 3 3 3 3 6 3 2 2 5 3 1 2 2 4 3 3 4 5 4 4 4 4 5 5 3 3 4 5 5 4 3 2 3 2 2 2 2 2 3 2 2 3 3
2 4 4 5 5 4 2 2 4 2 1 1 1 1 4 4 4 4 4 4 4 4 4 3 4 4 2 3 4 4 3 2 3 3 2 2 2 2 2 3 3 2 2 2
1 1 2 0 3 3 3 3 3 2 2 2 1 3 4 4 4 4 4 4 3 3 3 3 4 4 3 2 3 3 3 3 4 3 3 2 2 2 2 2 2 3 3 3
2 1 2 1 3 3 4 3 3 3 3 2 2 2 3 5 4 4 3 3 3 2 2 3 3 3 3 2 2 2 2 4 3 3 2 2 2 2 2 2 2 3 4 4
3 4 4 5 5 3 4 4 3 3 3 2 3 3 2 3 4 3 3 2 3 3 3 3 2 2 2 2 2 2 2 4 4 3 3 2 2 2 2 2 1 2 3 4
Wind_Direction
101 99 181 201 192 176 159 169 211 233 199 160 200 214 192 183 189 196 199 200 203 207 197 181 179 173 166 164 164 163 160 161 135 117 119 115 126 101 87 190 191 174 160 150
63 228 220 187 167 145 154 182 217 256 179 149 186 237 209 194 201 201 200 202 203 198 186 183 179 176 173 171 171 169 176 168 161 159 150 153 146 148 160 211 255 177 156 155
184 223 180 161 172 174 195 191 194 181 79 63 86 318 229 222 211 208 206 203 200 197 193 190 185 184 178 181 182 190 190 177 176 161 126 97 72 58 57 41 331 288 157 161
216 229 168 176 199 168 244 217 178 154 124 244 144 261 270 225 220 215 209 201 203 200 192 189 189 189 191 194 185 188 184 181 183 166 155 147 144 154 193 195 217 28 106 155
224 190 169 199 213 174 214 151 132 130 125 73 33 188 282 230 231 231 216 206 202 195 191 190 192 194 194 189 183 187 179 182 186 180 168 156 151 161 149 112 97 55 34 44
227 212 187 197 192 165 136 76 57 51 72 291 228 177 272 227 220 228 218 208 200 192 191 190 188 185 188 182 182 179 177 190 187 182 176 170 169 160 142 137 135 71 32 28
297 275 229 159 109 82 106 98 52 15 15 251 233 199 251 246 225 222 217 207 196 190 187 185 182 182 186 185 185 180 179 191 185 183 185 182 179 168 166 169 174 159 133 93
184 269 233 186 171 171 170 142 156 181 208 260 271 234 255 262 248 225 208 192 183 184 186 186 186 186 189 189 185 182 184 191 183 181 184 181 173 168 175 176 171 172 186 203
174 238 277 226 172 141 142 166 159 129 133 155 270 280 298 289 311 244 173 171 185 188 184 183 183 185 186 186 187 184 183 186 184 182 177 173 170 170 174 169 164 168 181 183
158 205 274 255 84 46 143 143 107 120 142 212 275 269 256 272 257 238 194 186 191 181 178 178 180 183 183 184 182 177 180 185 183 176 179 177 173 175 167 154 159 168 174 159
136 155 306 42 163 177 116 106 109 114 147 154 217 262 232 225 222 207 204 186 175 171 174 171 175 178 174 171 170 170 174 174 177 176 171 165 166 165 156 161 174 175 165 157
139 124 211 262 265 196 150 158 146 148 190 167 171 257 276 219 219 189 178 169 158 156 151 154 159 156 157 160 162 167 168 173 181 175 163 163 160 156 160 169 174 168 168 170
131 113 92 345 340 8 85 123 137 124 119 148 166 257 316 39 178 185 158 151 144 140 136 131 136 148 156 160 161 163 168 167 163 157 155 160 165 168 175 177 170 166 169 169
113 112 159 189 211 196 165 158 151 126 141 179 211 235 281 278 221 207 165 151 145 144 145 143 150 154 159 163 158 157 159 151 151 153 159 172 183 182 180 176 167 170 173 174
95 124 175 213 209 169 174 179 172 173 176 177 213 217 244 236 217 199 164 144 137 144 147 156 161 160 159 153 155 157 157 154 153 156 165 180 179 171 166 164 166 165 171 184
70 123 108 334 239 157 162 204 184 195 182 191 190 247 247 225 164 161 164 154 158 166 166 166 165 160 166 165 162 155 163 163 153 161 174 174 168 168 170 173 168 164 177 179
86 120 111 230 287 62 264 226 192 183 193 174 201 228 202 185 190 193 185 172 174 175 174 174 175 172 173 171 162 164 167 155 151 162 167 168 170 173 179 179 171 181 189 187
140 117 122 134 94 205 239 246 173 164 215 209 212 210 191 193 193 186 181 178 177 175 176 174 169 163 160 152 148 145 141 144 156 165 170 170 172 179 175 174 187 198 192 192
153 137 125 127 157 255 285 271 164 175 258 228 198 193 163 131 82 3 210 181 180 177 171 168 169 158 144 138 134 130 138 148 157 172 178 180 180 181 180 190 195 197 194 209
60 99 116 127 149 212 243 290 282 128 273 247 176 181 164 133 149 240 206 165 146 134 136 141 141 130 135 140 134 133 145 151 172 185 184 178 173 172 184 194 199 193 190 208
45 55 105 142 180 246 268 308 35 163 235 243 192 190 171 179 199 188 140 139 140 137 131 129 127 130 143 143 138 144 156 186 197 174 161 162 166 173 182 180 190 180 193 214
160 138 153 141 167 241 308 15 186 231 282 257 195 180 161 164 136 124 129 130 128 123 119 126 126 128 128 139 146 153 184 201 166 144 151 160 163 175 173 172 188 182 185 209
185 181 174 183 208 250 277 250 276 265 276 273 195 161 141 137 133 128 132 131 130 133 135 132 133 131 128 151 158 170 195 157 140 140 163 172 168 182 178 180 190 188 191 204
303 97 116 298 289 296 317 321 338 343 319 310 186 146 138 135 129 129 137 133 127 131 142 136 135 149 173 186 176 182 169 153 155 168 182 179 184 209 209 195 198 204 210 209
239 140 110 278 284 329 342 340 336 347 359 14 63 99 126 131 129 132 131 135 140 144 146 143 154 181 196 191 192 182 164 158 169 182 191 201 210 213 218 217 219 221 223 212
217 185 171 215 230 207 262 296 323 353 359 30 68 56 67 117 127 123 131 147 155 152 144 141 156 181 193 184 196 193 172 170 174 190 202 207 210 213 213 211 257 258 244 250